Location: Pakuratahi River
(41.0667°S, 175.2000°E)
Time: 00:23:24
(UTC+00:00)

Daily predictions for brighter satellites

Satellite Brightness Start Highest point End
(mag) Time Altitude Azimuth Time Altitude Azimuth Time Altitude Azimuth
SL-16 R/B 4.4 06:51:32 10° SW 06:56:21 29° WNW 07:01:09 10° NNW
Cosmos 1954 Rocket 4.0 06:52:09 10° SSW 06:57:25 88° ESE 07:02:36 10° NNE
Cosmos 1607 4.1 06:51:45 10° NNW 06:57:53 56° ENE 07:03:57 10° SE
Cosmos 2341 Rocket 4.1 06:53:31 10° N 06:59:56 80° E 07:06:25 10° S
Cosmos 1862 Rocket 4.0 06:57:32 10° NNW 07:02:01 71° W 07:06:35 10° S
Cosmos 1733 Rocket 3.5 06:58:19 10° SSW 07:02:50 72° W 07:07:16 10° N
Cosmos 220 Rocket 4.2 06:59:28 10° S 07:03:41 50° ESE 07:07:46 10° NE
Meteor 1-22 Rocket 4.4 06:58:12 10° S 07:03:59 83° W 07:09:30 10° N
Cosmos 1340 Rocket 3.0 07:00:31 10° NNE 07:04:13 44° E 07:07:59 10° SSE
Cosmos 2218 Rocket 4.0 07:03:11 10° N 07:09:27 71° E 07:15:53 10° SSE
Cosmos 1707 4.4 07:06:57 10° NNW 07:10:28 38° WSW 07:14:03 10° S
Okean 3 3.4 07:06:44 10° N 07:10:58 75° E 07:15:17 10° S
Cosmos 864 Rocket 4.4 07:07:05 10° N 07:13:13 76° E 07:19:26 10° S
ATLAS 5 CENTAUR R/B 2.7 07:09:01 10° SSW 07:14:28 38° SE 07:18:19 14° ENE
Okean 1-7 3.0 07:13:53 10° N 07:18:14 73° E 07:22:37 10° SSE
Cosmos 1727 Rocket 4.3 07:13:47 10° S 07:19:45 44° ESE 07:25:38 10° NNE
Cosmos 676 Rocket 4.4 07:16:05 10° SSW 07:21:20 67° WNW 07:26:29 10° N
Cosmos 1844 3.6 07:18:30 10° NNW 07:24:05 68° ENE 07:29:41 10° SSE
Cosmos 2098 Rocket 3.1 07:19:37 10° S 07:24:40 88° E 07:28:39 10° N
Cosmos 1452 Rocket 3.5 07:23:04 10° NNW 07:28:20 79° ENE 07:33:39 10° SSE
Timation 2 Rocket 4.2 07:22:26 10° NNW 07:28:57 85° WSW 07:35:49 10° SSE
Cosmos 1300 3.0 07:25:39 10° S 07:29:15 42° ESE 07:32:16 13° NNE
Meteor 1-16 Rocket 4.2 07:29:05 10° S 07:34:23 55° ESE 07:39:37 10° NNE
ADEOS 3.5 07:32:03 10° SSE 07:37:21 72° ENE 07:42:35 10° N
Cosmos 1850 Rocket 4.0 07:32:16 10° SSW 07:37:30 65° ESE 07:42:05 13° NNE
Cosmos 482 Debris 4.5 07:34:17 10° WSW 07:38:20 51° NW 07:40:07 21° NNE
CZ-4 R/B 2.8 07:35:21 10° SE 07:37:47 19° E 07:37:47 19° E
Cosmos 1908 Rocket 3.5 07:34:49 10° S 07:39:14 88° W 07:43:37 10° N
MINOTAUR 4 R/B 4.3 07:38:40 25° NE 07:40:13 42° ESE 07:43:26 10° S
Meteor 2-10 Rocket 3.5 07:35:43 10° S 07:41:00 83° E 07:46:25 10° N
Cosmos 1340 3.6 07:38:35 10° SSE 07:41:42 26° ESE 07:42:05 25° E
Meteor 1-29 4.4 07:40:40 10° S 07:43:25 34° WSW 07:46:08 10° NW
YAOGAN 1 2.7 07:39:31 10° SSE 07:43:49 50° E 07:48:02 10° N
Landsat 5 4.0 07:44:07 27° ENE 07:45:28 35° ESE 07:49:12 10° S
Cosmos 1758 4.1 07:42:22 10° SSW 07:46:22 54° W 07:50:20 10° N
CZ-4B DEB 4.4 07:42:09 10° SSE 07:47:33 47° E 07:52:50 10° N
Cosmos 968 Rocket 4.0 07:44:15 10° S 07:49:19 43° ESE 07:51:46 26° ENE
Cosmos 1844 Rocket 3.2 07:45:19 10° NW 07:50:54 63° WSW 07:56:35 10° SSE
USA 234 4.0 07:45:21 10° ESE 07:50:59 29° NE 07:56:35 10° N
Meteor PRIRODA 4.4 07:47:38 10° S 07:51:06 51° WSW 07:54:32 10° NNW
ATLAS 2AS CENTAUR R/B 4.4 07:47:11 10° SSW 07:52:17 20° SSE 07:56:31 13° ESE
Cosmos 1953 2.6 07:48:53 10° S 07:52:42 44° E 07:53:48 34° ENE
H-2A R/B 4.3 07:48:12 10° WNW 07:53:16 30° N 08:01:57 16° NE
Intercosmos 25 3.0 07:55:01 37° NE 07:55:53 50° E 07:59:07 10° SSE
CZ-4B R/B 3.9 07:52:49 10° SE 07:57:36 30° E 07:58:15 29° ENE
Cosmos 1703 Rocket 4.4 07:54:51 10° NNW 07:59:13 52° W 08:03:37 10° S
Cosmos 1821 Rocket 4.1 07:54:35 10° N 08:01:01 85° W 08:07:28 10° S
Okean 2 3.7 07:57:24 10° NNW 08:01:28 68° W 08:05:38 10° S
Cosmos 2123 Rocket 4.4 07:57:55 10° S 08:04:00 44° ESE 08:06:32 30° NE
Cosmos 1300 Rocket 3.5 07:59:48 10° S 08:04:13 62° E 08:05:54 35° NNE
Cosmos 1000 Rocket 4.4 08:00:12 10° S 08:06:28 69° E 08:11:04 19° NNE
PAYLOAD B 4.3 08:03:57 10° SSE 08:09:32 55° E 08:15:02 10° N
Cosmos 2242 Rocket 3.6 08:05:41 10° N 08:10:17 87° WSW 08:14:56 10° S
ATLAS CENTAUR R/B 2.2 08:08:46 10° SW 08:14:20 48° SE 08:14:47 45° ESE
Lacrosse 5 rocket 3.1 08:12:04 10° SSW 08:15:24 21° SSE 08:16:11 20° SE
CZ-4B R/B 3.8 08:12:04 10° S 08:15:59 47° WSW 08:19:39 10° NNW
Okean O Rocket 3.4 08:12:55 10° SE 08:14:25 18° SE 08:14:25 18° SE
Landsat 7 3.8 08:17:04 10° SSE 08:21:49 60° E 08:22:41 50° NE
BREEZE-M DEB (TANK) 2.0 08:16:52 10° WSW 08:22:22 78° NW 08:22:22 78° NW
Lacrosse 4 Rocket 3.7 08:21:04 10° SSE 08:22:06 12° SE 08:22:06 12° SE
NOSS 3-4 (A) 4.0 08:16:36 10° SW 08:23:19 56° WNW 08:26:54 24° N
NOSS 3-4 (C) 4.0 08:16:43 10° SW 08:23:26 57° WNW 08:26:58 25° N
Resurs 1-3 4.5 08:27:01 10° SSE 08:29:51 35° SE 08:29:51 35° SE
Cosmos 1302 Rocket 4.3 08:37:09 10° NNW 08:42:19 65° WSW 08:47:34 10° SSE
Cosmos 1833 Rocket 3.1 08:37:38 10° SSW 08:43:03 45° ESE 08:43:03 45° ESE
Cosmos 1455 3.6 08:39:53 10° S 08:41:58 31° S 08:41:58 31° S
Cosmos 2082 Rocket 4.0 08:41:42 10° S 08:45:11 18° SE 08:45:11 18° SE
Resurs 01 Rocket 4.2 08:41:37 10° SSE 08:41:43 10° SE 08:41:43 10° SE
SL-19 R/B 4.4 08:50:36 57° ESE 08:50:36 57° ESE 08:56:10 10° S
Cosmos 2278 Rocket 4.3 08:56:40 14° SE 08:56:40 14° SE 08:57:30 10° SE
ATLAS 5 CENTAUR R/B 3.1 08:53:52 10° SW 08:58:36 31° WNW 08:59:30 29° NW
Sich 1 Rocket 4.5 08:55:01 10° S 08:58:04 43° S 08:58:04 43° S
IRIDIUM 104 4.4 09:03:10 69° S 09:03:10 69° S 09:07:49 10° S
Cosmos 1461 4.2 09:05:04 10° SW 09:07:43 38° SW 09:07:43 38° SW
SPOT 1/Viking Rocket 4.4 09:07:11 10° SSE 09:10:39 42° SSE 09:10:39 42° SSE
CZ-4 R/B 3.1 09:09:31 10° S 09:13:13 32° WSW 09:13:33 31° W
SJ 16-02 2.7 09:09:10 10° SSW 09:11:49 36° SSW 09:11:49 36° SSW
USA 32 4.4 09:10:18 10° SSW 09:15:28 60° W 09:15:28 60° W
CSL-04 Rocket 4.4 09:10:18 10° SSE 09:13:51 42° SSE 09:13:51 42° SSE
Okean 2 Rocket 4.4 09:15:09 10° SSW 09:18:08 39° SSW 09:18:08 39° SSW
Cosmos 1605 Rocket 4.1 09:22:08 66° NW 09:22:51 72° W 09:29:20 10° S
ADEOS Rocket 3.3 09:22:59 10° SSE 09:30:06 81° E 09:30:06 81° E
USA 234 3.3 09:27:43 10° SE 09:34:21 77° SW 09:40:55 10° WNW
BREEZE-M DEB (TANK) 4.2 09:23:48 10° NW 09:35:21 56° NW 09:35:21 56° NW
ATLAS 2AS CENTAUR R/B 3.0 09:37:21 10° SSW 09:43:57 63° SSE 09:43:57 63° SSE
Okean O Rocket 3.9 09:49:22 10° SSW 09:51:49 22° SW 09:51:49 22° SW
Lacrosse 5 rocket 4.1 09:50:08 10° SW 09:51:21 18° SW 09:51:21 18° SW
Lacrosse 4 Rocket 4.4 09:57:44 10° SSW 09:58:11 13° SSW 09:58:11 13° SSW
Resurs 01 Rocket 4.5 10:18:15 10° SSW 10:19:14 15° SSW 10:19:14 15° SSW
Cosmos 2082 Rocket 4.0 10:24:30 10° SSW 10:27:02 27° SSW 10:27:02 27° SSW
Cosmos 2278 Rocket 4.2 10:38:25 24° SSW 10:38:25 24° SSW 10:41:21 10° S
